This demonstration page uses our WeatherBlox Daily Observations layout. Learn more.

Left ArrowRight Arrow

39.51506, -84.39828

Hourly Observations for December 1, 2021

Temp ( °F °C ) Dew Point ( °F °C ) Humidity (%) Winds ( mph kmh ) Pressure ( in mb ) Visibility ( mi km ) Precip ( " mm )
12:15 am 00:15 Clear 27 -2.9 26 -3.1 99 99 N N/A 30.20 1023 10 16 N/A
12:35 am 00:35 Clear with Mist and Fog 27 -2.6 27 -2.9 98 98 N N/A 30.19 1022 5 8 N/A
12:55 am 00:55 Mostly Cloudy with Mist and Fog 27 -2.6 27 -2.8 99 99 N N/A 30.20 1023 1 2 N/A
1:15 am 01:15 Mostly Cloudy with Freezing Fog 26 -3.4 25 -3.7 98 98 N N/A 30.20 1023 1 1 N/A
1:35 am 01:35 Mostly Cloudy with Freezing Fog 26 -3.3 26 -3.6 98 98 N N/A 30.20 1023 1 1 N/A
1:55 am 01:55 Partly Cloudy with Mist and Fog 27 -2.8 27 -3 99 99 N N/A 30.19 1022 7 11 N/A
2:15 am 02:15 Clear with Mist and Fog 27 -3 26 -3.3 98 98 N N/A 30.19 1022 7 11 N/A
2:35 am 02:35 Clear 27 -2.9 26 -3.2 98 98 N N/A 30.18 1022 7 11 N/A
2:55 am 02:55 Clear with Mist and Fog 27 -3 27 -3 100 100 N N/A 30.18 1022 5 8 N/A
3:15 am 03:15 Clear with Mist and Fog 26 -3.2 26 -3.4 99 99 N N/A 30.18 1022 4 6 N/A
3:35 am 03:35 Clear with Mist and Fog 27 -3 26 -3.2 99 99 N N/A 30.16 1021 5 8 N/A
3:55 am 03:55 Clear 26 -3.6 25 -4 97 97 N N/A 30.18 1022 7 11 N/A
4:15 am 04:15 Clear 27 -3 26 -3.3 98 98 N N/A 30.17 1022 10 16 N/A
4:35 am 04:35 Clear with Mist and Fog 27 -2.9 26 -3.1 99 99 N N/A 30.17 1022 7 11 N/A
4:55 am 04:55 Clear 25 -3.7 25 -4.1 97 97 N N/A 30.18 1022 7 11 N/A
5:15 am 05:15 Clear 27 -2.7 27 -3 98 98 N N/A 30.16 1021 7 11 N/A
5:35 am 05:35 Clear 26 -3.2 26 -3.5 98 98 N N/A 30.16 1021 7 11 N/A
5:55 am 05:55 Clear 28 -2.5 27 -2.7 99 99 N N/A 30.17 1022 7 11 N/A
6:15 am 06:15 Clear 27 -2.6 27 -2.8 99 99 N N/A 30.17 1022 7 11 N/A
6:35 am 06:35 Clear 28 -2.2 28 -2.4 99 99 N N/A 30.17 1022 7 11 N/A
6:55 am 06:55 Partly Cloudy with Mist and Fog 28 -2.1 28 -2.3 99 99 N N/A 30.18 1022 7 11 N/A
7:15 am 07:15 Clear with Mist and Fog 28 -2.1 28 -2.3 99 99 N N/A 30.17 1022 7 11 N/A
7:35 am 07:35 Clear with Mist and Fog 28 -2.2 28 -2.4 99 99 N N/A 30.17 1022 5 8 N/A
7:55 am 07:55 Mostly Cloudy with Mist and Fog 29 -1.7 29 -1.9 99 99 N N/A 30.17 1022 5 8 N/A
8:15 am 08:15 Mostly Cloudy with Mist and Fog 30 -1.2 29 -1.4 99 99 N N/A 30.17 1022 4 6 N/A
8:35 am 08:35 Mostly Cloudy with Mist and Fog 32 -0.1 31 -0.3 99 99 N N/A 30.17 1022 4 6 N/A
8:55 am 08:55 Cloudy with Light Rain 32 0.1 32 -0.1 99 99 N 5 7 30.18 1022 4 6 N/A
9:15 am 09:15 Cloudy with Light Rain 33 0.6 33 0.4 99 99 N N/A 30.17 1022 4 6 N/A
9:35 am 09:35 Cloudy with Light Rain 35 1.4 34 1.2 99 99 N N/A 30.16 1021 5 8 N/A
9:55 am 09:55 Cloudy with Light Rain 35 1.8 35 1.6 99 99 N N/A 30.16 1021 5 8 0.01 0.25
10:15 am 10:15 Cloudy with Light Rain 37 2.5 35 1.8 95 95 N N/A 30.15 1021 5 8 N/A
10:35 am 10:35 Cloudy with Light Rain 37 2.8 36 2.1 95 95 N N/A 30.14 1021 5 8 N/A
10:55 am 10:55 Cloudy with Light Rain 38 3.3 37 2.8 97 97 N 3 6 30.13 1020 5 8 N/A
11:15 am 11:15 Cloudy with Light Rain 39 3.9 38 3.4 97 97 N N/A 30.11 1020 5 8 N/A
11:35 am 11:35 Cloudy with Light Rain 40 4.3 38 3.6 95 95 N N/A 30.09 1019 7 11 N/A
11:55 am 11:55 Cloudy with Light Rain 40 4.6 39 4.1 97 97 N N/A 30.08 1019 5 8 0.01 0.25
12:15 pm 12:15 Cloudy with Light Rain 41 4.8 40 4.3 97 97 N N/A 30.06 1018 5 8 N/A
12:35 pm 12:35 Cloudy with Light Rain 41 5.1 41 4.8 98 98 NE 3 6 30.04 1017 5 8 N/A
12:55 pm 12:55 Cloudy with Light Rain 42 5.6 41 5.2 97 97 NNE 3 6 30.03 1017 5 8 0.01 0.25
1:15 pm 13:15 Cloudy with Light Rain 43 6.2 43 5.9 98 98 NE 3 6 30.00 1016 7 11 N/A
1:35 pm 13:35 Cloudy 44 6.8 44 6.5 98 98 NE 5 7 29.98 1015 7 11 N/A
1:55 pm 13:55 Cloudy 45 7.3 44 6.8 97 97 ENE 5 7 29.96 1014 7 11 N/A
2:15 pm 14:15 Mostly Cloudy 47 8.6 45 7.4 92 92 N N/A 29.95 1014 10 16 N/A
2:35 pm 14:35 Cloudy 49 9.2 44 6.4 83 83 SE 7 11 29.93 1014 10 16 N/A
2:55 pm 14:55 Cloudy 48 9.1 42 5.8 80 80 SSE 10 17 29.92 1013 10 16 N/A
3:15 pm 15:15 Cloudy 48 8.8 42 5.4 79 79 SW 3 6 29.93 1014 10 16 N/A
3:35 pm 15:35 Cloudy with Light Rain 47 8.3 43 6.3 87 87 SSE 5 7 29.92 1013 7 11 0.01 0.25
3:55 pm 15:55 Cloudy 47 8.4 44 6.5 88 88 S 5 7 29.91 1013 10 16 0.01 0.25
4:15 pm 16:15 Cloudy 47 8.4 44 6.5 88 88 S 3 6 29.90 1013 10 16 N/A
4:35 pm 16:35 Cloudy 47 8.6 43 6.2 85 85 S 6 9 29.89 1012 10 16 N/A
4:55 pm 16:55 Cloudy 47 8.6 43 6.2 85 85 SSW 5 7 29.89 1012 10 16 N/A
5:15 pm 17:15 Cloudy 47 8.5 44 6.4 87 87 SSW 6 9 29.89 1012 10 16 N/A
5:35 pm 17:35 Cloudy 47 8.5 44 6.8 89 89 WSW 6 9 29.90 1013 10 16 N/A
5:55 pm 17:55 Cloudy with Light Rain 47 8.3 44 6.9 91 91 WSW 8 13 29.91 1013 10 16 N/A
6:15 pm 18:15 Cloudy with Light Rain 47 8.4 45 7.4 94 94 W 7 11 29.93 1014 10 16 N/A
6:35 pm 18:35 Cloudy 47 8.4 45 7.4 94 94 WSW 6 9 29.92 1013 10 16 0.01 0.25
6:55 pm 18:55 Cloudy 47 8.2 46 7.5 95 95 W 6 9 29.93 1014 10 16 0.01 0.25
7:15 pm 19:15 Cloudy 47 8.3 45 7.3 93 93 WSW 5 7 29.94 1014 10 16 N/A
7:35 pm 19:35 Cloudy 47 8.3 45 7.2 93 93 SW 7 11 29.93 1014 10 16 N/A
7:55 pm 19:55 Cloudy 46 8 45 7.2 95 95 WSW 6 9 29.94 1014 10 16 N/A
8:15 pm 20:15 Cloudy 46 8 45 7.3 95 95 WSW 7 11 29.94 1014 10 16 N/A
8:35 pm 20:35 Cloudy 47 8.2 45 7.3 94 94 WSW 6 9 29.94 1014 10 16 N/A
8:55 pm 20:55 Cloudy 47 8.6 46 7.7 94 94 WSW 8 13 29.94 1014 10 16 N/A
9:15 pm 21:15 Cloudy 49 9.2 47 8.3 94 94 W 10 17 29.94 1014 10 16 N/A
9:35 pm 21:35 Cloudy 49 9.4 47 8.6 95 95 W 10 17 29.93 1014 10 16 N/A
9:55 pm 21:55 Cloudy 49 9.4 48 8.7 95 95 SW 8 13 29.93 1014 7 11 N/A
10:15 pm 22:15 Cloudy 49 9.4 48 8.8 96 96 WSW 7 11 29.93 1014 7 11 N/A
10:35 pm 22:35 Cloudy 51 10.3 49 9.3 94 94 W 9 15 29.93 1013 10 16 N/A
10:55 pm 22:55 Cloudy 51 10.5 49 9.4 93 93 WSW 9 15 29.93 1013 10 16 N/A
11:15 pm 23:15 Cloudy 51 10.5 49 9.4 93 93 WSW 9 15 29.92 1013 10 16 N/A
11:35 pm 23:35 Cloudy 50 10.1 49 9.2 94 94 SSW 8 13 29.92 1013 7 11 N/A
11:55 pm 23:55 Cloudy 49 9.6 48 8.8 95 95 SW 10 17 29.92 1013 7 11 N/A

Powered by AerisWeather